This is the latest recevied weather packets stored in our database for station/object WW6Q. If no packets are shown the sender has not sent any weather packets the latest 10 day(s).
| Time | Temp. | Humidity | Pressure | Rain* | Wind** | Luminosity | Snow |
|---|---|---|---|---|---|---|---|
| 1788208535 | 27.78° C | 73% | 1014.8 hPa | 0 mm | - | 150 W/m² | - |
| 1788208234 | 27.78° C | 72% | 1015.2 hPa | 0 mm | - | 163 W/m² | - |
| 1788207933 | 27.78° C | 71% | 1015 hPa | 0 mm | - | 216 W/m² | - |
| 1788207633 | 27.78° C | 71% | 1015 hPa | 0 mm | - | 145 W/m² | - |
| 1788207332 | 27.78° C | 70% | 1015 hPa | 0 mm | - | 570 W/m² | - |
| 1788207028 | 27.78° C | 69% | 1014.9 hPa | 0 mm | - | 578 W/m² | - |
| 1788206724 | 27.78° C | 72% | 1015.3 hPa | 0 mm | - | 590 W/m² | - |
| 1788206424 | 27.78° C | 70% | 1015.3 hPa | 0 mm | - | 595 W/m² | - |
| 1788206119 | 27.78° C | 69% | 1015.3 hPa | 0 mm | - | 598 W/m² | - |
| 1788205820 | 27.78° C | 68% | 1015.4 hPa | 0 mm | - | 615 W/m² | - |
| 1788205514 | 27.78° C | 70% | 1015.6 hPa | 0 mm | - | 625 W/m² | - |
| 1788205214 | 27.78° C | 68% | 1015.5 hPa | 0 mm | - | 648 W/m² | - |
| 1788204910 | 27.78° C | 70% | 1015.5 hPa | 0 mm | - | 690 W/m² | - |
| 1788204605 | 27.22° C | 68% | 1015.8 hPa | 0 mm | - | 755 W/m² | - |
| 1788204299 | 26.11° C | 76% | 1016 hPa | 0 mm | - | 854 W/m² | - |
| 1788203994 | 25.56° C | 75% | 1016 hPa | 0 mm | - | 362 W/m² | - |
| 1788203691 | 25.56° C | 75% | 1015.9 hPa | 0 mm | - | 289 W/m² | - |
| 1788203387 | 25.56° C | 72% | 1016.1 hPa | 0 mm | - | 310 W/m² | - |
| 1788203082 | 26.11° C | 76% | 1016.2 hPa | 0 mm | - | 314 W/m² | - |
| 1788202780 | 26.11° C | 78% | 1016 hPa | 0 mm | - | 352 W/m² | - |
| 1788202477 | 25.56° C | 76% | 1016.4 hPa | 0 mm | - | 365 W/m² | - |
| 1788202176 | 26.11° C | 77% | 1016.5 hPa | 0 mm | - | 306 W/m² | - |
| 1788201871 | 26.11° C | 76% | 1016.3 hPa | 0 mm | - | 280 W/m² | - |
| 1788201567 | 26.11° C | 73% | 1016.4 hPa | 0 mm | - | 273 W/m² | - |
| 1788201266 | 26.11° C | 72% | 1016.2 hPa | 0 mm | - | 321 W/m² | - |
* Rain latest hour (hover to see other rain measurements)
** Current wind speed in m/s (hover to see current wind gust speed)